Location: Berlin
(42.3812°N, 71.6370°W)
Time: 23:49:37
(UTC+00:00)

SJ 16-02 - Pass Details

Date: 15 November 2025
Orbit: 585 x 594 km, 75.0° (Epoch: 09 December)

Event Time Altitude Azimuth Distance (km) Brightness Sun altitude
Exits shadow 08:41:02 20° 50° (NE) 1,386 3.6 -32.6°
Maximum altitude 08:41:33 20° 61° (ENE) 1,368 3.7 -32.5°
Drops below altitude 10° 08:44:46 10° 110° (ESE) 1,912 4.6 -31.9°
Sets 08:47:26 0° 127° (SE) 2,806 5.4 -31.4°
